Flag for U.S.A. Weather past 2 weeks in Jacksonville, Florida, U.S.A.

Now
75 °F

Light rain. More clouds than sun.


Feels Like: 74 °F
Forecast: 64 / 73 °F
Wind: 5 mph from South

Location: Jacksonville Naval Air Station


UV Index: 0 (Low)

Visibility: 10 mi


Pressure: 29.94 "Hg

Humidity: 88%

Dew point: 71 °F

Location of JacksonvilleLocation

Historic Weather in Jacksonville

°F

Jacksonville temperature yesterday

Maximum temperature yesterday: 71 °F (at 1:53 PM)
Minimum temperature yesterday: 62 °F (at 12:53 AM)
Average temperature yesterday: 66 °F

Past Weeks' High & Low Weather Summary

 TemperatureHumidityPressure
High87 °F (Apr 3, 4:53 PM)93% (Apr 8, 7:53 AM)30.31 "Hg (Apr 8, 7:53 AM)
Low49 °F (Apr 16, 3:53 AM)26% (Apr 10, 12:53 PM)29.66 "Hg (Apr 8, 5:53 PM)
Average71 °F67%30.04 "Hg
* Reported Apr 3 3:53 PM — Apr 18 3:53 PM, Jacksonville, Weather by CustomWeather, © 2014

Note: Actual official high and low records may vary slightly from our data, if they occured in-between our weather recording intervals... More about our weather records

Advertising

Historic Weather Conditions — Data for Previous 24 hours

 ConditionsComfort  
Time TempWeatherWind HumidityBarometerVisibility
3:53 PM
Apr 18
75 °FLight rain. Mostly cloudy.6 mph88%29.96 "Hg8 mi
2:53 PM74 °FLight rain. Cloudy.7 mph88%29.98 "Hg8 mi
1:53 PM73 °FLight rain. Fog.18 mph88%30.00 "Hg2 mi
12:56 PM71 °FLight rain. Fog.15 mph90%30.03 "Hg4 mi
11:53 AM71 °FLight rain. Fog.14 mph87%30.03 "Hg6 mi
10:53 AM71 °FLight rain. Overcast.13 mph81%30.07 "Hg9 mi
9:53 AM72 °FMostly cloudy.9 mph73%30.09 "Hg9 mi
8:53 AM69 °FMostly cloudy.8 mph81%30.11 "Hg9 mi
7:53 AM67 °FMostly cloudy.12 mph85%30.11 "Hg8 mi
6:53 AM66 °FMostly cloudy.13 mph87%30.10 "Hg10 mi
5:53 AM66 °FMostly cloudy.14 mph87%30.11 "Hg10 mi
4:53 AM67 °FMostly cloudy.12 mph85%30.12 "Hg10 mi
3:53 AM67 °FOvercast.12 mph85%30.15 "Hg10 mi
2:53 AM66 °FMostly cloudy.16 mph84%30.17 "Hg10 mi
1:53 AM67 °FOvercast.13 mph81%30.18 "Hg10 mi
12:53 AM67 °FPartly cloudy.12 mph81%30.20 "Hg10 mi
11:53 PM
Apr 17
67 °FPartly cloudy.16 mph85%30.21 "Hg10 mi
10:53 PM66 °FPartly cloudy.15 mph84%30.23 "Hg10 mi
9:53 PM66 °FPassing clouds.16 mph84%30.24 "Hg8 mi
8:53 PM66 °FPartly sunny.15 mph84%30.24 "Hg8 mi
7:53 PM66 °FMostly cloudy.22 mph81%30.23 "Hg7 mi
6:53 PM67 °FMostly cloudy.18 mph79%30.23 "Hg10 mi
5:53 PM69 °FMostly cloudy.21 mph70%30.24 "Hg10 mi
Weather by CustomWeather, © 2014

See weather overview